This demonstration page uses our WeatherBlox Daily Observations layout. Learn more.

Left ArrowRight Arrow

Hourly Observations for April 9, 2017

Temp ( °F °C ) Dew Point ( °F °C ) Humidity (%) Winds ( mph kmh ) Pressure ( in mb ) Visibility ( mi km ) Precip ( " mm )
12:53 am 00:53 Mostly Clear 44 6.7 35 1.7 71 71 NE 14 22 29.70 1006 10 16 0.00 0.00
1:53 am 01:53 Cloudy 42 5.6 35 1.7 76 76 ENE 12 19 29.72 1007 10 16 0.00 0.00
2:53 am 02:53 Cloudy 41 5 35 1.7 79 79 ENE 14 22 29.73 1007 10 16 0.00 0.00
3:53 am 03:53 Mostly Cloudy 40 4.4 33 0.6 77 77 ENE 16 26 29.74 1007 10 16 0.00 0.00
4:53 am 04:53 Cloudy 39 3.9 32 0 76 76 ENE 14 22 29.78 1008 10 16 0.00 0.00
5:53 am 05:53 Cloudy 38 3.3 31 -0.6 76 76 ENE 14 22 29.81 1010 10 16 0.00 0.00
6:30 am 06:30 Cloudy 37 3 30 -1 75 75 ENE 10 17 29.88 1012 10 16 0.00 0.00
6:53 am 06:53 Cloudy 38 3.3 31 -0.6 76 76 NE 13 20 29.86 1011 10 16 0.00 0.00
7:53 am 07:53 Cloudy 38 3.3 31 -0.6 76 76 NE 13 20 29.89 1012 10 16 0.00 0.00
8:00 am 08:00 Cloudy 37 3 32 0 81 81 NE 13 20 29.94 1014 10 16 0.00 0.00
8:53 am 08:53 Cloudy 39 3.9 31 -0.6 73 73 NE 14 22 29.92 1013 10 16 0.00 0.00
9:53 am 09:53 Cloudy 40 4.4 31 -0.6 70 70 ENE 15 24 29.94 1014 10 16 0.00 0.00
10:53 am 10:53 Cloudy 41 5 30 -1.1 65 65 ENE 12 19 29.97 1015 10 16 0.00 0.00
11:53 am 11:53 Mostly Cloudy 42 5.6 29 -1.7 60 60 E 9 15 30.00 1016 10 16 0.00 0.00
12:53 pm 12:53 Mostly Cloudy 44 6.7 29 -1.7 55 55 E 9 15 30.01 1016 10 16 0.00 0.00
1:53 pm 13:53 Mostly Cloudy 45 7.2 28 -2.2 52 52 VRB 5 7 30.02 1017 10 16 0.00 0.00
2:53 pm 14:53 Cloudy 45 7.2 26 -3.3 48 48 E 5 7 30.03 1017 10 16 0.00 0.00
3:53 pm 15:53 Cloudy 46 7.8 26 -3.3 46 46 SE 3 6 30.04 1017 10 16 0.00 0.00
4:53 pm 16:53 Cloudy 45 7.2 27 -2.8 49 49 S 5 7 30.06 1018 10 16 0.00 0.00
5:53 pm 17:53 Cloudy 43 6.1 31 -0.6 63 63 SW 12 19 30.08 1019 10 16 0.00 0.00
6:53 pm 18:53 Cloudy 41 5 33 0.6 73 73 SW 16 26 30.11 1020 10 16 0.00 0.00
7:53 pm 19:53 Cloudy with Light Rain 38 3.3 35 1.7 89 89 W 9 15 30.13 1020 10 16 0.00 0.03
8:14 pm 20:14 Cloudy with Light Rain 37 3 36 2 93 93 WSW 8 13 30.15 1021 10 16 0.00 0.00
8:53 pm 20:53 Cloudy with Light Rain 37 2.8 36 2.2 96 96 WSW 6 9 30.15 1021 10 16 0.01 0.25
9:02 pm 21:02 Cloudy with Light Rain 37 2.8 35 1.7 93 93 WSW 9 15 30.15 1021 10 16 0.00 0.03
9:10 pm 21:10 Cloudy with Light Rain 37 3 36 2 93 93 SW 8 13 30.15 1021 10 16 0.00 0.00
9:43 pm 21:43 Cloudy with Light Rain 37 2.8 36 2.2 96 96 SSW 7 11 30.18 1022 9 14 0.01 0.25
9:53 pm 21:53 Cloudy with Light Rain 37 2.8 36 2.2 96 96 SSW 7 11 30.16 1022 10 16 0.01 0.25
10:12 pm 22:12 Cloudy with Light Rain 37 3 36 2 93 93 SSW 7 11 30.18 1022 10 16 0.00 0.00
10:40 pm 22:40 Cloudy 37 3 36 2 93 93 SSW 6 9 30.15 1021 10 16 0.00 0.00
10:45 pm 22:45 Cloudy 37 2.8 36 2.2 96 96 SSW 6 9 30.15 1021 10 16 0.00 0.03
10:53 pm 22:53 Cloudy 37 2.8 35 1.7 93 93 SSW 5 7 30.16 1021 10 16 0.01 0.25
11:27 pm 23:27 Cloudy with Light Rain 36 2.2 35 1.7 97 97 SW 5 7 30.15 1021 9 14 0.00 0.03
11:53 pm 23:53 Cloudy 36 2.2 35 1.7 97 97 Calm 30.15 1021 10 16 0.00 0.03

Powered by AerisWeather